Weather in Nosivka

Ukraine / Chernihiv Region     50°55′49″N   31°34′53″E
temp.,
°C
wind,
m/s
gust,
m/s
humid.,
%
clouds,
%
prec.,
mm/h
press.,
hPa
HPBL,
m
17 october, sun
sun1700:00+7nw23888 0.0 101937
03:00+5nw33935 0.0 102045
06:00+4nw239467 0.0 102041
09:00+6wnw248139 0.0 1020155
12:00+11wnw34595 0.0 1020837
15:00+12wnw444929 0.0 10181408
18:00+8nw336360 0.0 101943
21:00+5nw347244 0.0 101968
18 october, mon
mon1800:00+5w2272100 0.0 102035
03:00+4w357599 0.0 1020103
06:00+4wsw3578100 0.0 1019117
09:00+6wsw4866100 0.0 1019287
12:00+10w5750100 0.0 1018954
15:00+11wnw5648100 0.0 10171392
18:00+10wnw5762100 0.0 1017589
21:00+8w487499 0.1 1017601
19 october, tue
tue1900:00+7wnw5884100 0.3 1017892
03:00+6wnw4792100 1.2 1017370
06:00+4nnw5117911 0.9 1019415
09:00+3nw510750 0.9 1022362
12:00+8nw69491 0.0 10231148
15:00+9nw79395 0.0 10231607
18:00+7nnw6954100 0.0 10251164
21:00+3nw36715 0.1 1026105
20 october, wed
wed2000:00+2wnw368124 0.0 1027114
03:00+1wnw3484100 0.0 102858
06:000wnw238424 0.0 102833
09:00+2wsw227278 0.0 1028109
12:00+7sw3455100 0.0 1027671
15:00+9ssw464588 0.0 1025893
18:00+6s4952100 0.0 1023174
21:00+7s51346100 0.0 1022337
21 october, thu
thu2100:00+7ssw61549100 0.0 1020390
03:00+8ssw71451100 0.0 1018432
06:00+8ssw71458100 0.0 1016418
09:00+8ssw71568100 0.0 1015463
12:00+12ssw81359100 0.0 1014617
15:00+15ssw81353100 0.0 1011856
18:00+14ssw7145589 0.0 1010527
21:00+13ssw61457100 0.0 1010416